This demonstration page uses our WeatherBlox Daily Observations layout. Learn more.

Left ArrowRight Arrow

36.19886, -115.1175

Hourly Observations for August 26, 2021

Temp ( °F °C ) Dew Point ( °F °C ) Humidity (%) Winds ( mph kmh ) Pressure ( in mb ) Visibility ( mi km ) Precip ( " mm )
12:53 am 00:53 Clear 93 33.9 40 4.4 16 16 S 12 19 29.81 1009 10 16 0.00 0.00
1:53 am 01:53 Clear 93 33.9 41 5 16 16 W 8 13 29.80 1009 10 16 0.00 0.00
2:53 am 02:53 Clear 90 32.2 43 6.1 19 19 SSW 6 9 29.80 1009 10 16 0.00 0.00
3:53 am 03:53 Clear 86 30 41 5 20 20 NW 3 6 29.81 1009 10 16 0.00 0.00
4:53 am 04:53 Clear 83 28.3 42 5.6 24 24 NW 3 6 29.81 1010 10 16 0.00 0.00
5:53 am 05:53 Clear 81 27.2 43 6.1 26 26 WNW 6 9 29.83 1010 10 16 0.00 0.00
6:53 am 06:53 Sunny 82 27.8 42 5.6 24 24 NNW 6 9 29.85 1011 10 16 0.00 0.00
7:53 am 07:53 Sunny 86 30 43 6.1 22 22 NNW 3 6 29.85 1011 10 16 0.00 0.00
8:53 am 08:53 Sunny 90 32.2 41 5 18 18 Calm 29.85 1011 10 16 0.00 0.00
9:53 am 09:53 Sunny 94 34.4 41 5 16 16 VRB 7 11 29.86 1011 10 16 0.00 0.00
10:53 am 10:53 Sunny 97 36.1 38 3.3 13 13 VRB 3 6 29.84 1011 10 16 0.00 0.00
11:53 am 11:53 Sunny 102 38.9 17 -8.3 5 5 SW 10 17 29.81 1010 10 16 0.00 0.00
12:53 pm 12:53 Sunny 104 40 13 -10.6 4 4 S 10 17 29.79 1009 10 16 0.00 0.00
1:53 pm 13:53 Sunny 106 41.1 10 -12.2 3 3 SW 16 26 29.77 1008 10 16 0.00 0.00
2:53 pm 14:53 Sunny 106 41.1 0 -17.8 2 2 SW 14 22 29.75 1007 10 16 0.00 0.00
3:53 pm 15:53 Sunny 107 41.7 3 -16.1 2 2 SSW 15 24 29.72 1006 10 16 0.00 0.00
4:53 pm 16:53 Sunny 106 41.1 -3 -19.4 2 2 SW 15 24 29.71 1006 10 16 0.00 0.00
5:53 pm 17:53 Sunny 105 40.6 -5 -20.6 1 1 SW 16 26 29.70 1006 10 16 0.00 0.00
6:53 pm 18:53 Sunny 102 38.9 -5 -20.6 2 2 SW 14 22 29.71 1006 10 16 0.00 0.00
7:53 pm 19:53 Clear 99 37.2 0 -17.8 2 2 WSW 12 19 29.72 1007 10 16 0.00 0.00
8:53 pm 20:53 Clear 97 36.1 6 -14.4 3 3 W 10 17 29.74 1007 10 16 0.00 0.00
9:53 pm 21:53 Clear 95 35 9 -12.8 4 4 NNW 9 15 29.75 1007 10 16 0.00 0.00
10:53 pm 22:53 Clear 90 32.2 13 -10.6 6 6 WNW 7 11 29.75 1007 10 16 0.00 0.00
11:53 pm 23:53 Clear 87 30.6 18 -7.8 8 8 W 6 9 29.74 1007 10 16 0.00 0.00

Powered by AerisWeather